sat.trackr.live / text

‹ back to catalog

STARLINK-31345

NORAD 58941 · 2024-027L

PAYLOAD ACTIVE UNKNOWN

§ Identity

Operator
Country
US
Launch date
2024-02-10
Launch site
AFWTR
Launch vehicle
Mass (kg)
RCS (m²)

Purposes: comms

External: N2YO · Heavens-Above · Gunter

§ Orbital elements

Epoch: 2026-05-24T20:43:46.748064Z

Period
94.11 min
Inclination
53.1614°
Eccentricity
0.0001191
Mean motion
15.30190985 rev/d
Perigee alt
474.4 km
Apogee alt
476.1 km
Semi-major
6,853.4 km
B*
1.8166e-5
RAAN
315.6086°
Arg perigee
91.8078°
Mean anomaly
268.3059°
Rev number
12,899

§ Raw data

STARLINK-313451 58941U 24027L   26144.86373551  .00000179  00000+0  18166-4 0  99992 58941  53.1614 315.6086 0001191  91.8078 268.3059 15.30190985128996

JSON: /api/v1/satellites/58941 · /tle

For live sub-satellite position, see the globe view (requires WebGL).

§ Visibility from observer

Set your observer location to see the next 7 days of passes ≥ 10°. The values pass through the URL so the page stays shareable.

No JS? Fill the form by hand. The geolocation button needs JavaScript.